Wind_Speed
19 20 20 20 20 20 20 20 22 24 26 27 28 28 28 26 25 25 23 20 24 27 33 32 30 30 29 26 23 22 19 18 19 21 20 22 26 29 30 26 30 31 32
22 22 23 24 24 24 25 27 28 30 31 33 34 34 33 29 28 27 26 26 26 27 28 31 38 37 37 34 29 29 28 26 25 28 27 28 25 28 30 27 29 33 34
24 26 26 27 29 29 29 30 31 32 34 36 36 37 38 35 33 33 32 32 34 35 35 34 33 35 41 43 41 36 37 36 35 35 35 36 33 27 30 32 29 32 36
26 26 28 29 29 32 33 34 36 38 40 40 40 40 40 40 40 40 38 37 39 40 42 42 41 38 36 41 47 50 45 43 43 43 41 42 38 34 30 34 38 36 33
28 29 31 32 32 32 34 36 37 39 41 43 44 45 45 45 45 43 42 42 42 43 44 45 45 45 44 42 40 50 56 55 53 53 51 45 46 41 36 37 39 40 39
30 30 32 34 36 36 37 39 41 42 42 43 45 45 45 45 46 45 45 45 46 46 47 49 50 51 50 48 47 47 49 60 63 60 60 55 48 47 43 41 41 41 41
31 32 33 36 39 41 43 44 46 46 46 45 47 47 47 48 47 47 46 47 48 49 49 50 51 52 53 52 51 52 51 51 64 70 66 64 60 55 45 45 46 44 45
33 35 36 36 40 42 43 44 46 48 50 49 49 50 49 49 49 47 48 49 50 52 53 52 51 51 52 51 52 53 53 53 55 72 76 70 69 64 58 52 49 46 47
36 37 37 39 41 44 45 45 48 49 50 53 52 51 51 51 51 49 49 50 51 54 56 57 58 58 57 53 49 48 50 54 57 62 78 82 75 71 65 57 53 50 47
41 41 43 43 46 48 48 47 49 50 52 54 55 54 53 52 54 52 51 51 54 55 59 61 63 63 62 59 54 50 49 51 58 61 69 83 87 79 73 64 62 56 51
46 46 46 49 50 52 50 49 54 56 54 55 55 54 53 55 56 55 53 53 56 59 63 65 65 66 66 62 59 51 51 49 56 62 68 77 83 85 81 78 63 58 56
51 51 52 53 54 55 57 58 59 59 56 57 57 55 54 57 56 55 54 55 58 62 67 70 69 68 68 61 59 55 50 47 51 59 69 76 79 84 87 81 78 70 63
55 56 56 56 58 60 63 62 61 62 60 59 59 58 58 58 58 57 57 58 63 67 71 73 73 71 68 65 60 55 49 44 44 54 64 75 80 79 86 85 82 74 67
57 58 59 61 62 65 66 66 66 66 64 60 59 60 60 60 59 58 59 62 66 71 74 75 77 74 71 65 62 54 49 41 40 50 58 71 79 81 79 84 83 79 67
61 61 62 64 67 70 71 70 70 68 65 61 60 61 60 60 58 59 63 66 70 75 77 79 79 78 74 66 60 53 48 40 37 44 52 63 75 80 81 81 84 79 74
67 67 68 68 71 73 72 71 69 68 66 64 61 61 61 59 58 61 66 71 74 78 83 85 83 79 75 68 60 49 45 39 36 38 46 55 67 77 81 78 80 78 75
69 70 71 73 75 76 74 74 73 70 67 65 63 62 62 61 61 65 69 74 79 83 87 89 87 81 72 66 57 45 40 35 35 37 42 48 59 72 79 78 77 76 75
73 75 76 77 78 76 76 76 75 72 70 68 65 63 62 62 65 68 72 77 82 86 90 90 86 80 73 64 50 39 35 32 35 36 40 44 53 67 74 77 75 76 74
76 78 79 81 81 80 78 78 78 73 70 68 66 63 64 66 68 71 75 81 86 90 90 87 83 78 69 57 43 33 32 31 33 34 37 41 46 58 69 74 74 73 74
80 83 84 87 86 85 82 81 79 74 71 69 67 66 66 69 72 74 79 83 88 92 90 84 79 75 59 46 37 29 28 30 31 28 30 33 37 48 59 70 72 72 74
86 87 91 90 90 87 85 83 78 77 71 69 67 67 68 70 67 81 83 87 93 91 88 82 78 65 51 35 32 29 26 30 25 23 28 28 31 40 53 64 67 70 70
89 92 93 92 90 89 86 84 78 74 72 70 68 70 72 75 77 80 88 91 91 89 85 79 67 53 42 30 27 32 29 31 27 26 28 26 21 26 38 55 63 65 66
93 93 93 93 92 88 87 82 77 75 72 70 71 73 76 80 83 86 88 91 87 84 78 68 55 43 33 26 25 30 35 34 33 32 31 24 25 20 25 40 53 39 61
94 96 96 96 92 89 85 79 75 73 73 74 76 79 82 85 88 89 90 89 86 78 64 56 46 36 26 23 25 32 39 40 41 39 37 32 32 26 27 26 35 51 60
95 96 98 98 93 87 80 76 74 75 77 79 82 86 88 91 91 90 88 83 78 65 53 48 41 32 23 22 28 36 45 46 47 44 42 39 34 32 32 29 33 31 37
97 98 97 96 87 80 77 77 79 79 81 84 88 90 92 93 90 87 83 78 66 56 46 42 37 30 21 23 29 39 49 52 51 49 48 42 42 40 40 36 43 36 43
Wind_Direction
356 353 339 323 316 315 317 321 324 325 323 323 324 325 332 336 336 329 317 306 293 282 273 269 267 270 268 255 251 249 243 231 245 247 248 258 239 235 231 227 218 216 215
345 346 339 333 325 321 321 320 320 319 319 318 319 320 320 322 323 317 314 312 309 303 297 284 268 259 260 258 248 245 244 241 237 244 247 248 245 239 233 226 221 218 216
345 340 335 330 325 321 316 315 315 315 314 313 313 314 315 320 320 316 316 317 315 312 307 300 289 277 263 257 250 244 243 241 242 243 245 246 244 240 236 229 227 223 224
352 346 340 337 328 322 317 314 313 312 312 313 313 314 314 317 316 313 314 313 312 311 309 306 303 296 278 262 253 244 241 239 241 244 242 244 243 238 235 235 230 230 227
341 341 338 335 332 327 321 317 315 314 314 313 313 314 315 313 310 309 310 310 309 307 306 307 305 300 293 287 270 254 243 238 239 237 243 245 240 237 232 234 234 232 232
336 336 330 328 327 325 324 321 319 319 316 315 313 312 311 307 305 305 305 307 306 307 307 308 305 301 296 290 284 273 255 241 238 238 238 242 244 238 235 234 234 232 230
334 333 332 328 325 323 321 320 319 318 313 311 309 307 304 302 303 306 306 303 301 302 304 304 301 297 293 288 286 279 269 251 239 236 235 236 242 241 237 234 234 233 233
332 332 332 331 327 324 321 318 315 313 310 309 306 304 303 302 302 304 304 302 303 305 304 301 300 299 293 287 284 281 271 260 247 236 233 233 233 239 241 237 232 230 234
326 327 330 332 327 324 322 321 316 313 309 307 304 301 302 305 305 304 306 305 306 306 305 305 305 305 303 297 291 284 275 263 252 241 232 232 232 233 236 236 233 227 230
324 323 325 326 328 328 325 321 317 315 311 308 305 303 304 308 307 307 306 306 308 308 308 310 309 308 306 303 298 293 283 265 251 242 236 231 231 232 230 232 233 230 227
324 321 320 324 325 326 325 318 317 318 314 308 304 304 307 308 308 308 307 307 308 310 311 309 308 310 309 305 301 298 288 271 253 242 232 230 228 228 230 228 225 226 228
322 320 320 322 322 322 323 321 319 319 314 310 308 310 309 306 308 307 306 307 309 311 311 310 309 311 311 310 305 299 290 277 255 242 231 227 228 225 227 228 229 227 230
319 318 318 319 320 320 322 322 319 319 317 314 311 310 307 306 306 306 306 309 310 310 311 310 310 313 314 313 306 301 293 278 258 242 231 226 226 226 225 227 229 229 229
314 315 315 316 317 318 318 320 320 320 319 315 310 308 306 305 305 305 307 307 309 310 310 311 314 315 316 314 309 304 294 280 262 244 233 227 224 224 224 226 226 229 226
311 312 313 311 313 315 316 319 320 319 317 311 310 307 304 304 304 304 306 307 308 310 312 314 316 317 316 315 309 304 292 279 262 247 235 228 223 223 222 223 226 226 226
309 311 310 310 311 313 315 317 317 316 312 310 309 306 304 303 303 305 306 307 310 314 315 316 316 317 315 315 310 303 290 276 264 247 236 230 225 221 221 221 224 226 227
305 307 308 309 312 314 315 315 315 313 309 308 307 304 302 302 304 306 307 308 314 314 315 317 316 315 316 313 307 300 287 271 260 246 239 232 226 219 219 220 220 222 224
304 305 306 308 309 312 313 313 313 311 308 307 305 302 301 302 304 306 308 314 314 314 315 315 315 316 317 313 305 294 279 263 254 244 238 233 227 218 217 219 218 218 220
300 301 303 305 308 311 311 311 311 308 307 305 303 303 303 304 305 309 314 313 313 314 315 316 316 316 314 308 300 282 267 251 245 242 237 233 227 219 217 218 218 217 217
299 300 302 305 307 308 309 310 308 306 306 304 303 303 303 306 308 310 311 313 315 315 315 316 314 313 311 304 291 275 256 240 235 235 235 231 227 221 217 216 215 215 217
297 299 302 303 305 307 307 306 305 305 304 302 302 302 305 307 306 310 313 314 313 316 315 315 313 311 309 296 280 262 243 226 216 210 210 213 216 220 215 213 213 215 216
297 299 301 302 304 305 305 304 302 302 302 302 302 303 304 306 308 310 313 313 316 314 313 310 308 307 304 287 270 248 229 210 200 193 197 200 210 217 214 210 210 213 217
295 297 298 299 301 302 302 301 301 301 301 301 301 303 304 307 309 311 312 313 313 312 310 306 304 305 296 282 265 235 208 196 187 179 171 181 179 192 199 208 206 199 226
293 295 297 297 298 299 300 299 299 299 300 301 302 304 305 306 308 310 312 312 311 311 307 303 303 302 288 274 249 219 199 188 180 181 175 183 190 183 178 193 201 208 218
293 293 294 295 298 298 297 297 297 299 300 300 302 304 305 307 309 310 311 311 311 309 304 300 298 295 283 264 235 211 194 188 183 184 178 185 189 183 179 186 193 209 231
288 289 292 294 294 295 295 295 296 298 299 300 301 303 304 306 307 309 310 312 311 305 300 293 290 288 280 255 232 212 196 191 186 186 186 189 193 193 190 192 199 207 216
Height
10957 10956 10954 10952 10949 10946 10943 10941 10939 10937 10936 10934 10932 10929 10925 10921 10919 10916 10915 10913 10910 10906 10903 10900 10901 10900 10901 10902 10903 10903 10904 10904 10905 10905 10906 10906 10907 10908 10908 10910 10913 10917 10921
10953 10952 10949 10946 10944 10941 10938 10935 10933 10931 10929 10927 10923 10921 10919 10917 10914 10913 10910 10907 10903 10900 10897 10895 10894 10894 10895 10895 10897 10898 10899 10899 10900 10900 10902 10901 10902 10902 10906 10908 10909 10913 10917
10950 10947 10946 10943 10940 10938 10934 10932 10929 10926 10924 10921 10918 10914 10910 10906 10904 10903 10901 10897 10894 10892 10889 10887 10885 10884 10885 10886 10888 10891 10890 10892 10893 10893 10894 10895 10896 10899 10901 10904 10906 10908 10912
10948 10945 10942 10940 10937 10934 10931 10927 10924 10921 10917 10914 10910 10905 10901 10896 10893 10891 10889 10887 10885 10881 10878 10874 10871 10872 10873 10874 10875 10877 10880 10880 10881 10884 10885 10886 10889 10892 10895 10897 10899 10903 10905
10945 10943 10940 10936 10933 10931 10927 10922 10918 10915 10910 10906 10901 10896 10892 10888 10885 10882 10879 10877 10875 10871 10868 10864 10861 10859 10858 10858 10860 10863 10864 10867 10867 10869 10873 10876 10879 10883 10885 10886 10890 10895 10898
10942 10939 10936 10931 10927 10924 10920 10916 10911 10908 10903 10898 10893 10889 10885 10882 10878 10874 10871 10867 10863 10860 10857 10854 10850 10846 10843 10842 10842 10842 10845 10848 10850 10853 10856 10862 10868 10871 10876 10878 10881 10886 10889
10939 10935 10931 10926 10920 10916 10912 10907 10902 10899 10895 10892 10886 10882 10878 10872 10868 10865 10861 10857 10854 10851 10848 10845 10841 10835 10830 10827 10824 10822 10823 10826 10831 10832 10839 10846 10851 10858 10864 10869 10871 10876 10879
10935 10931 10927 10922 10916 10911 10906 10902 10897 10892 10886 10882 10878 10872 10867 10862 10858 10854 10849 10845 10840 10836 10833 10831 10827 10823 10817 10812 10808 10803 10802 10805 10808 10811 10817 10825 10833 10840 10850 10856 10858 10864 10867
10931 10926 10921 10917 10912 10906 10900 10895 10888 10883 10878 10871 10867 10861 10855 10850 10845 10841 10836 10830 10825 10820 10816 10811 10806 10801 10795 10791 10788 10783 10780 10782 10783 10788 10795 10803 10811 10821 10831 10841 10847 10851 10856
10924 10919 10914 10910 10904 10898 10893 10886 10880 10874 10867 10859 10852 10847 10842 10837 10830 10826 10823 10817 10811 10806 10799 10792 10785 10780 10774 10769 10764 10761 10758 10757 10759 10763 10770 10778 10788 10799 10811 10821 10830 10837 10843
10916 10911 10906 10901 10895 10889 10883 10876 10869 10862 10856 10847 10840 10834 10829 10823 10817 10812 10808 10803 10797 10790 10781 10775 10769 10762 10754 10748 10742 10740 10734 10732 10733 10738 10743 10752 10763 10776 10788 10800 10812 10822 10830
10905 10901 10896 10890 10884 10877 10872 10865 10857 10851 10845 10835 10826 10822 10816 10810 10805 10801 10795 10788 10782 10775 10767 10758 10751 10745 10734 10729 10721 10716 10712 10708 10708 10712 10720 10728 10739 10751 10764 10779 10791 10803 10812
10894 10889 10885 10879 10873 10866 10860 10853 10844 10837 10830 10822 10813 10808 10803 10797 10792 10787 10781 10774 10767 10760 10751 10742 10733 10726 10717 10709 10701 10694 10690 10687 10686 10689 10697 10705 10718 10730 10743 10757 10770 10784 10797
10886 10881 10874 10868 10860 10853 10847 10841 10833 10825 10818 10811 10803 10796 10790 10784 10779 10773 10767 10760 10754 10745 10734 10726 10717 10707 10698 10689 10679 10675 10668 10667 10667 10669 10676 10685 10695 10710 10725 10739 10751 10764 10781
10873 10870 10865 10857 10849 10842 10834 10828 10820 10813 10805 10798 10793 10785 10777 10772 10766 10760 10752 10745 10737 10726 10716 10706 10698 10688 10679 10671 10660 10655 10649 10648 10650 10652 10658 10666 10677 10691 10703 10718 10733 10747 10762
10856 10853 10849 10843 10836 10829 10821 10814 10806 10799 10791 10785 10780 10772 10764 10759 10754 10746 10737 10728 10718 10707 10694 10685 10676 10669 10659 10651 10641 10637 10631 10631 10633 10636 10641 10649 10660 10673 10686 10702 10716 10732 10746
10840 10837 10832 10826 10819 10812 10805 10798 10791 10785 10776 10771 10766 10759 10751 10746 10739 10730 10721 10710 10700 10687 10675 10664 10656 10648 10641 10632 10624 10619 10615 10616 10619 10622 10626 10633 10641 10654 10668 10684 10699 10716 10730
10825 10820 10816 10811 10805 10798 10792 10784 10778 10771 10762 10756 10750 10744 10737 10731 10723 10715 10705 10694 10682 10672 10661 10649 10637 10626 10619 10611 10607 10604 10602 10604 10606 10611 10614 10619 10627 10640 10656 10671 10684 10698 10714
10811 10806 10801 10795 10789 10783 10776 10770 10762 10755 10748 10741 10733 10727 10721 10715 10708 10697 10688 10678 10665 10655 10643 10632 10620 10611 10604 10595 10592 10591 10591 10593 10596 10601 10605 10610 10618 10630 10643 10657 10672 10688 10699
10795 10789 10783 10778 10771 10766 10759 10751 10743 10736 10731 10723 10718 10710 10705 10699 10690 10681 10673 10662 10648 10638 10623 10614 10603 10595 10591 10583 10579 10579 10582 10585 10588 10593 10599 10604 10609 10618 10630 10643 10658 10673 10685
10780 10773 10767 10760 10753 10747 10741 10734 10726 10717 10714 10708 10702 10695 10690 10685 10673 10664 10655 10645 10630 10617 10605 10596 10585 10580 10576 10572 10569 10571 10575 10577 10582 10587 10593 10598 10603 10609 10620 10632 10648 10661 10675
10759 10753 10746 10740 10735 10729 10722 10716 10708 10701 10695 10690 10685 10679 10673 10667 10660 10652 10637 10625 10613 10599 10590 10580 10574 10569 10564 10560 10559 10562 10567 10571 10577 10584 10590 10595 10602 10607 10614 10625 10639 10653 10665
10741 10734 10727 10722 10717 10712 10705 10697 10691 10684 10677 10673 10668 10663 10656 10649 10641 10632 10621 10607 10597 10585 10576 10565 10560 10557 10553 10550 10550 10552 10559 10565 10572 10580 10585 10595 10600 10605 10611 10619 10634 10652 10657
10720 10713 10707 10702 10698 10694 10687 10680 10673 10665 10660 10654 10649 10643 10638 10630 10622 10613 10602 10588 10578 10570 10559 10550 10547 10546 10544 10542 10542 10547 10552 10558 10566 10575 10580 10589 10597 10603 10609 10616 10625 10634 10642
10696 10690 10684 10678 10677 10672 10667 10660 10654 10648 10642 10634 10628 10622 10615 10609 10602 10595 10582 10571 10559 10550 10544 10537 10535 10535 10534 10534 10535 10540 10546 10551 10558 10567 10575 10583 10591 10599 10605 10614 10620 10631 10634
10679 10671 10664 10658 10656 10652 10647 10641 10635 10629 10623 10616 10610 10603 10595 10588 10582 10574 10564 10552 10542 10534 10531 10527 10524 10525 10526 10527 10528 10532 10537 10544 10551 10559 10569 10576 10585 10592 10597 10606 10615 10619 10626